Home   Weather   Foz do Iguaçu   Past weeks

Flag for Brazil Past Weather in Foz do Iguaçu, Paraná, Brazil — Yesterday and Last 2 Weeks

Now
75 °F

Thunderstorms. Partly cloudy.


Feels Like: 74 °F
Forecast: 67 / 82 °F
Wind: 3 mph from Northwest

Location: Foz Do Iguacu Aeroporto

Current Time: Dec 11, 2016 at 12:10:47 am

Latest Report: Dec 10, 2016 at 11:00 pm


Visibility: N/A

Pressure: 29.74 "Hg

Humidity: 94%

Dew Point: 73 °F

Location of Foz do IguaçuLocation

Past Weather in Foz do Iguaçu — Graph

°F

Foz do Iguaçu Temperature Yesterday

Maximum temperature yesterday: 86 °F (at 5:00 pm)
Minimum temperature yesterday: 72 °F (at 12:00 am)
Average temperature yesterday: 77 °F

High & Low Weather Summary for the Past Weeks

 TemperatureHumidityPressure
High90 °F (Nov 26, 3:00 pm)100% (Nov 25, 11:00 pm)30.07 "Hg (Nov 25, 11:00 pm)
Low61 °F (Nov 30, 7:00 am)43% (Dec 5, 3:00 pm)29.65 "Hg (Dec 10, 6:00 pm)
Average75 °F82%29.84 "Hg
* Reported Nov 25 11:00 pm — Dec 10 11:00 pm, Foz do Iguaçu, Weather by CustomWeather, © 2016

Note: Actual official high and low records may vary slightly from our data, if they occured in-between our weather recording intervals... More about our weather records

Advertising

Foz do Iguaçu Weather History for the Previous 24 Hours

Scroll right to see more
 ConditionsComfort  
Time TempWeatherWind HumidityBarometerVisibility
11:00 pm
Sat, Dec 10
75 °FThunderstorms. Partly cloudy.3 mph94%29.74 "HgN/A
10:00 pm77 °FThunderstorms. Passing clouds.No wind89%29.71 "HgN/A
9:00 pm77 °FPassing clouds.2 mph89%29.71 "HgN/A
8:00 pm81 °FScattered clouds.3 mph74%29.68 "HgN/A
7:00 pm84 °FScattered clouds.2 mph66%29.68 "HgN/A
6:00 pm86 °FScattered clouds.6 mph62%29.65 "HgN/A
5:00 pm86 °FScattered clouds.6 mph62%29.68 "HgN/A
4:00 pm84 °FBroken clouds.6 mph66%29.71 "HgN/A
3:00 pm82 °FScattered clouds.8 mph70%29.74 "HgN/A
2:00 pm82 °FPartly sunny.7 mph70%29.77 "HgN/A
1:00 pm81 °FPartly sunny.6 mph74%29.77 "HgN/A
12:00 pm79 °FPartly sunny.5 mph79%29.77 "HgN/A
11:00 am77 °FBroken clouds.6 mph89%29.77 "HgN/A
10:00 am75 °FPartly sunny.2 mph100%29.77 "HgN/A
9:00 am72 °FLight rain. Fog.2 mph100%29.77 "Hg3 mi
8:00 am72 °FLight rain. Fog.2 mph100%29.74 "Hg3 mi
7:00 am72 °FMostly cloudy.1 mph100%29.74 "HgN/A
6:00 am72 °FOvercast.2 mph100%29.71 "HgN/A
5:00 am72 °FMostly cloudy.3 mph100%29.71 "HgN/A
4:00 am72 °FMostly cloudy.3 mph100%29.71 "HgN/A
3:00 am72 °FMostly cloudy.2 mph100%29.74 "HgN/A
2:00 am72 °FMostly cloudy.2 mph100%29.74 "HgN/A
1:00 am72 °FMostly cloudy.2 mph100%29.74 "HgN/A
12:00 am72 °FOvercast.5 mph100%29.74 "HgN/A
Weather by CustomWeather, © 2016

See weather overviewHow to use our weather pages